YAOGAN 10

Satellite information

Favourite Embed

Satellite Type and Status

PAYLOADIN ORBIT

Key statistics

Satellite YAOGAN 10 at a glance.

Uptime

5390

Days in orbit

Revolutions

≈ 14.8

Per day

Orbit

SSO

Sun Synchronous Orbit

Inclination

97.9

Latest

Satellite identification and parameters

Extended collection of information and parameters for YAOGAN 10.

Object identification

Identified? True

Debris? False

Object name: YAOGAN 10

International designator: 2010-038A

Object number (NORAD): 36834

Object ID (CCSDS): 36834

Country: PEOPLES REPUBLIC OF CHINA (PRC)

Current information (Y/N): Y

RCS size: LARGE

Orbital parameters

Period: 97.024 minutes

Inclination: 97.9273 deg

SMA: 6994.35 km

Apoapsis: 617.266 km

Periapsis: 615.165 km

RAAN: 153.1947 deg

Eccentricy: 0.0001502

Argument of periapsis: 86.8196 deg

Mean anomaly: 27.4506 deg

Mean motion: 14.84163255 rev/day

Mean motion (dot): 0.00000774 rev/day2

B* drag term: 0.000099053 1/REarth

Two-line elements (TLE)

Creation date: May 12, 2025, 2:31 a.m.

Reference frame: TEME

Reference center: EARTH

Epoch: May 11, 2025, 10:40 p.m. UTC

TLE line 0: 0 YAOGAN 10

TLE line 1: 1 36834U 10038A 25131.94479378 .00000774 00000-0 99053-4 0 9997

TLE line 2: 2 36834 97.9273 153.1947 0001502 86.8196 27.4506 14.84163255797678

Live tracking on map

Real-time ground track for satellite YAOGAN 10.

In-orbit conjunctions

There are no conjunctions computed for YAOGAN 10, at the moment. Check back to stay up to date, as we update our databases every day.

Go to all conjunctions

Associated space launch

YAOGAN 10 was lifted into orbit during the mission ‘Long March 4C | Yaogan-10’, on board a Long March 4C space rocket.

The launch took place on Aug. 9, 2010, 10:49 p.m. from Launch Complex 9.

For more information about the launch, click the button.

Launch to space Long March 4C | Yaogan-10
Long March 4C | Yaogan-10

Agency: N/A

Status: Launch Successful

Launch date: Aug. 9, 2010, 10:49 p.m. UTC

Rocket: Long March 4C

Launch pad: Launch Complex 9

Location: Taiyuan Satellite Launch Center, People's Republic of China

...

Latest news about this satellite

There are no fresh news available about this satellite. Check back as we update our databases every day.


Newsletter sign-up

Weekly statistics, charts and insights to help you stay on top of the space industry.